Time,TemperatureF,DewpointF,PressureIn,WindDirection,WindDirectionDegrees,WindSpeedMPH,WindSpeedGustMPH,Humidity,HourlyPrecipIn,Conditions,Clouds,dailyrainin,SoftwareType,DateUTC
2013-08-02 00:02:00,66.2,0.0,29.70,SW,225,0.2,1.8,0,0.00,,,0.00,WUHU216HW,2013-08-02 04:02:00,
2013-08-02 00:08:00,66.2,0.0,29.70,SW,225,0.0,0.7,0,0.00,,,0.00,WUHU216HW,2013-08-02 04:08:00,
2013-08-02 00:12:00,66.4,0.0,29.70,SW,225,0.0,1.1,0,0.00,,,0.00,WUHU216HW,2013-08-02 04:12:00,
2013-08-02 00:18:00,66.4,0.0,29.70,SW,225,0.4,1.1,0,0.00,,,0.00,WUHU216HW,2013-08-02 04:18:00,
2013-08-02 00:23:00,66.4,0.0,29.70,WSW,248,1.1,1.1,0,0.00,,,0.00,WUHU216HW,2013-08-02 04:23:00,
2013-08-02 00:27:00,66.4,0.0,29.69,WSW,248,0.9,1.1,0,0.00,,,0.00,WUHU216HW,2013-08-02 04:27:00,
2013-08-02 00:33:00,66.4,0.0,29.69,WSW,248,0.0,1.1,0,0.00,,,0.00,WUHU216HW,2013-08-02 04:33:00,
2013-08-02 00:38:00,66.6,0.0,29.69,WSW,248,0.0,0.4,0,0.00,,,0.00,WUHU216HW,2013-08-02 04:38:00,
2013-08-02 00:43:00,66.6,0.0,29.70,WSW,248,0.2,0.4,0,0.00,,,0.00,WUHU216HW,2013-08-02 04:43:00,
2013-08-02 00:48:00,66.6,0.0,29.69,SSE,158,0.0,2.0,0,0.00,,,0.00,WUHU216HW,2013-08-02 04:48:00,
2013-08-02 00:53:00,66.6,0.0,29.70,SSW,203,0.0,2.0,0,0.00,,,0.00,WUHU216HW,2013-08-02 04:53:00,
2013-08-02 00:58:00,66.6,0.0,29.69,SSW,203,0.0,0.7,0,0.00,,,0.00,WUHU216HW,2013-08-02 04:58:00,
2013-08-02 01:03:00,66.6,0.0,29.69,SSW,203,0.0,0.0,0,0.00,,,0.00,WUHU216HW,2013-08-02 05:03:00,
2013-08-02 01:08:00,66.6,0.0,29.69,SSW,203,0.0,0.0,0,0.00,,,0.00,WUHU216HW,2013-08-02 05:08:00,
2013-08-02 01:13:00,66.6,0.0,29.69,SSW,203,0.0,0.0,0,0.00,,,0.00,WUHU216HW,2013-08-02 05:13:00,
2013-08-02 01:18:00,66.6,0.0,29.69,SSW,203,0.0,0.0,0,0.00,,,0.00,WUHU216HW,2013-08-02 05:18:00,
2013-08-02 01:23:00,66.8,0.0,29.69,SW,225,0.0,0.0,0,0.00,,,0.00,WUHU216HW,2013-08-02 05:23:00,
2013-08-02 01:28:00,66.6,0.0,29.68,SW,225,0.2,0.2,0,0.00,,,0.00,WUHU216HW,2013-08-02 05:28:00,
2013-08-02 01:33:00,66.6,0.0,29.68,West,270,0.0,0.2,0,0.00,,,0.00,WUHU216HW,2013-08-02 05:33:00,
2013-08-02 01:38:00,66.8,0.0,29.68,West,270,0.0,0.0,0,0.00,,,0.00,WUHU216HW,2013-08-02 05:38:00,
2013-08-02 01:43:00,66.6,0.0,29.68,NW,315,0.2,0.2,0,0.00,,,0.00,WUHU216HW,2013-08-02 05:43:00,
2013-08-02 01:48:00,66.6,0.0,29.67,SW,225,1.6,1.6,0,0.00,,,0.00,WUHU216HW,2013-08-02 05:48:00,
2013-08-02 01:53:00,66.6,0.0,29.67,WSW,248,0.0,1.6,0,0.00,,,0.00,WUHU216HW,2013-08-02 05:53:00,
2013-08-02 01:58:00,66.6,0.0,29.67,WSW,248,0.0,0.0,0,0.00,,,0.00,WUHU216HW,2013-08-02 05:58:00,
2013-08-02 02:03:00,66.4,0.0,29.67,WSW,248,0.0,0.0,0,0.00,,,0.00,WUHU216HW,2013-08-02 06:03:00,
2013-08-02 02:08:00,66.4,0.0,29.68,WSW,248,0.0,0.0,0,0.00,,,0.00,WUHU216HW,2013-08-02 06:08:00,
2013-08-02 02:13:00,66.4,0.0,29.67,WSW,248,0.0,0.0,0,0.00,,,0.00,WUHU216HW,2013-08-02 06:13:00,
2013-08-02 02:18:00,66.2,0.0,29.67,SSE,158,0.0,0.0,0,0.00,,,0.00,WUHU216HW,2013-08-02 06:18:00,
2013-08-02 02:23:00,66.2,0.0,29.67,SSE,158,0.0,0.0,0,0.00,,,0.00,WUHU216HW,2013-08-02 06:23:00,
2013-08-02 02:28:00,66.2,0.0,29.66,SSE,158,0.0,0.0,0,0.00,,,0.00,WUHU216HW,2013-08-02 06:28:00,
2013-08-02 02:33:00,66.2,0.0,29.66,SSE,158,0.0,0.0,0,0.00,,,0.00,WUHU216HW,2013-08-02 06:33:00,
2013-08-02 02:38:00,66.2,0.0,29.66,SSE,158,0.0,0.0,0,0.00,,,0.00,WUHU216HW,2013-08-02 06:38:00,
2013-08-02 02:43:00,66.1,0.0,29.66,SSE,158,0.0,0.0,0,0.00,,,0.00,WUHU216HW,2013-08-02 06:43:00,
2013-08-02 02:48:00,66.1,0.0,29.66,SSE,158,0.0,0.0,0,0.00,,,0.00,WUHU216HW,2013-08-02 06:48:00,
2013-08-02 02:53:00,66.1,0.0,29.66,South,180,0.4,0.4,0,0.00,,,0.00,WUHU216HW,2013-08-02 06:53:00,
2013-08-02 02:58:00,66.1,0.0,29.66,South,180,0.0,0.4,0,0.00,,,0.00,WUHU216HW,2013-08-02 06:58:00,
2013-08-02 03:03:00,66.1,0.0,29.66,SE,135,1.3,1.3,0,0.00,,,0.00,WUHU216HW,2013-08-02 07:03:00,
2013-08-02 03:08:00,66.1,0.0,29.66,WSW,248,1.1,1.3,0,0.00,,,0.00,WUHU216HW,2013-08-02 07:08:00,
2013-08-02 03:13:00,65.9,0.0,29.66,WSW,248,0.0,1.1,0,0.00,,,0.00,WUHU216HW,2013-08-02 07:13:00,
2013-08-02 03:18:00,65.9,0.0,29.67,WSW,248,0.0,0.0,0,0.00,,,0.00,WUHU216HW,2013-08-02 07:18:00,
2013-08-02 03:23:00,65.9,0.0,29.66,WSW,248,0.0,0.0,0,0.00,,,0.00,WUHU216HW,2013-08-02 07:23:00,
2013-08-02 03:28:00,65.9,0.0,29.66,WSW,248,0.0,0.0,0,0.00,,,0.00,WUHU216HW,2013-08-02 07:28:00,
2013-08-02 03:33:00,65.9,0.0,29.66,WSW,248,0.0,0.0,0,0.00,,,0.00,WUHU216HW,2013-08-02 07:33:00,
2013-08-02 03:38:00,65.9,0.0,29.66,WSW,248,0.0,0.0,0,0.00,,,0.00,WUHU216HW,2013-08-02 07:38:00,
2013-08-02 03:43:00,65.9,0.0,29.66,WSW,248,0.0,0.0,0,0.00,,,0.00,WUHU216HW,2013-08-02 07:43:00,
2013-08-02 03:48:00,65.9,0.0,29.65,WSW,248,0.0,0.0,0,0.00,,,0.00,WUHU216HW,2013-08-02 07:48:00,
2013-08-02 03:53:00,65.7,0.0,29.65,NW,315,0.0,0.2,0,0.00,,,0.00,WUHU216HW,2013-08-02 07:53:00,
2013-08-02 03:58:00,65.7,0.0,29.66,NW,315,0.0,0.2,0,0.00,,,0.00,WUHU216HW,2013-08-02 07:58:00,
2013-08-02 04:03:00,65.7,0.0,29.66,NW,315,0.0,0.0,0,0.00,,,0.00,WUHU216HW,2013-08-02 08:03:00,
2013-08-02 04:08:00,65.7,0.0,29.66,NW,315,0.0,0.0,0,0.00,,,0.00,WUHU216HW,2013-08-02 08:08:00,
2013-08-02 04:13:00,65.7,0.0,29.67,NW,315,0.0,0.0,0,0.00,,,0.00,WUHU216HW,2013-08-02 08:13:00,
2013-08-02 04:18:00,65.5,0.0,29.67,SW,225,0.0,0.7,0,0.00,,,0.00,WUHU216HW,2013-08-02 08:18:00,
2013-08-02 04:23:00,65.5,0.0,29.67,SW,225,0.2,0.7,0,0.00,,,0.00,WUHU216HW,2013-08-02 08:23:00,
2013-08-02 04:28:00,65.5,0.0,29.67,SE,135,0.4,0.4,0,0.00,,,0.00,WUHU216HW,2013-08-02 08:28:00,
2013-08-02 04:33:00,65.3,0.0,29.67,SE,135,0.0,0.4,0,0.00,,,0.00,WUHU216HW,2013-08-02 08:33:00,
2013-08-02 04:38:00,65.3,0.0,29.67,SE,135,0.0,0.0,0,0.00,,,0.00,WUHU216HW,2013-08-02 08:38:00,
2013-08-02 04:43:00,65.3,0.0,29.67,SE,135,0.0,0.0,0,0.00,,,0.00,WUHU216HW,2013-08-02 08:43:00,
2013-08-02 04:53:00,65.3,0.0,29.68,WSW,248,0.4,1.1,0,0.00,,,0.00,WUHU216HW,2013-08-02 08:53:00,
2013-08-02 04:58:00,65.2,0.0,29.68,WSW,248,0.0,1.1,0,0.00,,,0.00,WUHU216HW,2013-08-02 08:58:00,
2013-08-02 05:03:00,65.2,0.0,29.68,WSW,248,0.0,0.0,0,0.00,,,0.00,WUHU216HW,2013-08-02 09:03:00,
2013-08-02 05:08:00,65.0,0.0,29.69,SW,225,0.0,0.0,0,0.00,,,0.00,WUHU216HW,2013-08-02 09:08:00,
2013-08-02 05:13:00,64.8,0.0,29.69,SW,225,0.0,0.0,0,0.00,,,0.00,WUHU216HW,2013-08-02 09:13:00,
2013-08-02 05:18:00,64.4,0.0,29.69,WSW,248,0.0,0.0,0,0.00,,,0.00,WUHU216HW,2013-08-02 09:18:00,
2013-08-02 05:23:00,64.3,0.0,29.68,WSW,248,0.0,0.0,0,0.00,,,0.00,WUHU216HW,2013-08-02 09:23:00,
2013-08-02 05:28:00,64.1,0.0,29.69,WSW,248,0.0,0.2,0,0.00,,,0.00,WUHU216HW,2013-08-02 09:28:00,
2013-08-02 05:33:00,63.7,0.0,29.69,WSW,248,0.0,0.2,0,0.00,,,0.00,WUHU216HW,2013-08-02 09:33:00,
2013-08-02 05:38:00,63.5,0.0,29.69,WSW,248,0.0,0.0,0,0.00,,,0.00,WUHU216HW,2013-08-02 09:38:00,
2013-08-02 05:43:00,63.4,0.0,29.69,WSW,248,0.0,0.0,0,0.00,,,0.00,WUHU216HW,2013-08-02 09:43:00,
2013-08-02 05:48:00,63.4,0.0,29.70,WSW,248,0.0,0.0,0,0.00,,,0.00,WUHU216HW,2013-08-02 09:48:00,
2013-08-02 05:53:00,63.4,0.0,29.70,WSW,248,0.0,0.0,0,0.00,,,0.00,WUHU216HW,2013-08-02 09:53:00,
2013-08-02 05:58:00,63.4,0.0,29.70,WSW,248,0.0,0.0,0,0.00,,,0.00,WUHU216HW,2013-08-02 09:58:00,
2013-08-02 06:03:00,63.2,0.0,29.70,WSW,248,0.0,0.0,0,0.00,,,0.00,WUHU216HW,2013-08-02 10:03:00,
2013-08-02 06:08:00,63.2,0.0,29.70,WSW,248,0.0,0.0,0,0.00,,,0.00,WUHU216HW,2013-08-02 10:08:00,
2013-08-02 06:13:00,63.0,0.0,29.70,WSW,248,0.0,0.0,0,0.00,,,0.00,WUHU216HW,2013-08-02 10:13:00,
2013-08-02 06:18:00,62.8,0.0,29.70,WSW,248,0.0,0.0,0,0.00,,,0.00,WUHU216HW,2013-08-02 10:18:00,
2013-08-02 06:23:00,62.6,0.0,29.70,WSW,248,0.0,0.0,0,0.00,,,0.00,WUHU216HW,2013-08-02 10:23:00,
2013-08-02 06:28:00,62.6,0.0,29.70,WSW,248,0.0,0.0,0,0.00,,,0.00,WUHU216HW,2013-08-02 10:28:00,
2013-08-02 06:33:00,62.5,0.0,29.71,WSW,248,0.0,0.0,0,0.00,,,0.00,WUHU216HW,2013-08-02 10:33:00,
2013-08-02 06:38:00,62.5,0.0,29.71,WSW,248,0.0,0.0,0,0.00,,,0.00,WUHU216HW,2013-08-02 10:38:00,
2013-08-02 06:43:00,62.5,0.0,29.71,WSW,248,0.0,0.0,0,0.00,,,0.00,WUHU216HW,2013-08-02 10:43:00,
2013-08-02 06:48:00,62.6,0.0,29.71,WSW,248,0.0,0.0,0,0.00,,,0.00,WUHU216HW,2013-08-02 10:48:00,
2013-08-02 06:53:00,63.0,0.0,29.71,WSW,248,0.0,0.0,0,0.00,,,0.00,WUHU216HW,2013-08-02 10:53:00,
2013-08-02 06:58:00,63.0,0.0,29.72,WSW,248,0.0,0.0,0,0.00,,,0.00,WUHU216HW,2013-08-02 10:58:00,
2013-08-02 07:03:00,63.4,0.0,29.72,WSW,248,0.0,0.0,0,0.00,,,0.00,WUHU216HW,2013-08-02 11:03:00,
2013-08-02 07:08:00,65.5,0.0,29.72,WSW,248,0.0,0.0,0,0.00,,,0.00,WUHU216HW,2013-08-02 11:08:00,
2013-08-02 07:13:00,67.3,0.0,29.72,WSW,248,0.0,0.0,0,0.00,,,0.00,WUHU216HW,2013-08-02 11:13:00,
2013-08-02 07:18:00,68.4,0.0,29.72,WSW,248,0.0,0.0,0,0.00,,,0.00,WUHU216HW,2013-08-02 11:18:00,
2013-08-02 07:23:00,69.5,0.0,29.72,WSW,248,0.0,0.4,0,0.00,,,0.00,WUHU216HW,2013-08-02 11:23:00,
2013-08-02 07:28:00,71.1,0.0,29.72,SW,225,0.0,1.1,0,0.00,,,0.00,WUHU216HW,2013-08-02 11:28:00,
2013-08-02 07:34:00,72.4,0.0,29.73,SW,225,0.0,1.1,0,0.00,,,0.00,WUHU216HW,2013-08-02 11:34:00,
2013-08-02 07:39:00,74.0,0.0,29.73,SW,225,0.0,0.0,0,0.00,,,0.00,WUHU216HW,2013-08-02 11:39:00,
2013-08-02 07:44:00,74.7,0.0,29.73,SW,225,0.0,0.0,0,0.00,,,0.00,WUHU216HW,2013-08-02 11:44:00,
2013-08-02 07:49:00,74.3,0.0,29.73,ENE,68,1.1,1.1,0,0.00,,,0.00,WUHU216HW,2013-08-02 11:49:00,
2013-08-02 07:54:00,75.2,0.0,29.73,ENE,68,0.0,1.1,0,0.00,,,0.00,WUHU216HW,2013-08-02 11:54:00,
2013-08-02 07:59:00,75.2,0.0,29.73,ENE,68,0.0,0.4,0,0.00,,,0.00,WUHU216HW,2013-08-02 11:59:00,
2013-08-02 08:04:00,75.1,0.0,29.73,East,90,0.7,0.7,0,0.00,,,0.00,WUHU216HW,2013-08-02 12:04:00,
2013-08-02 08:09:00,75.1,0.0,29.73,NE,45,0.0,1.8,0,0.00,,,0.00,WUHU216HW,2013-08-02 12:09:00,
2013-08-02 08:19:00,74.9,0.0,29.74,NE,45,0.9,1.1,0,0.00,,,0.00,WUHU216HW,2013-08-02 12:19:00,
2013-08-02 08:24:00,74.9,0.0,29.74,South,180,0.0,2.7,0,0.00,,,0.00,WUHU216HW,2013-08-02 12:24:00,
2013-08-02 08:29:00,74.9,0.0,29.74,ENE,68,0.4,2.7,0,0.00,,,0.00,WUHU216HW,2013-08-02 12:29:00,
2013-08-02 08:34:00,74.2,0.0,29.74,NE,45,0.0,2.0,0,0.00,,,0.00,WUHU216HW,2013-08-02 12:34:00,
2013-08-02 08:39:00,73.8,0.0,29.74,NE,45,0.4,2.0,0,0.00,,,0.00,WUHU216HW,2013-08-02 12:39:00,
2013-08-02 08:44:00,73.8,0.0,29.74,East,90,1.3,1.3,0,0.00,,,0.00,WUHU216HW,2013-08-02 12:44:00,
2013-08-02 08:49:00,74.0,0.0,29.74,West,270,0.0,1.3,0,0.00,,,0.00,WUHU216HW,2013-08-02 12:49:00,
2013-08-02 08:54:00,73.8,0.0,29.73,ESE,113,0.0,1.1,0,0.00,,,0.00,WUHU216HW,2013-08-02 12:54:00,
2013-08-02 08:59:00,74.0,0.0,29.74,ESE,113,0.4,1.1,0,0.00,,,0.00,WUHU216HW,2013-08-02 12:59:00,
2013-08-02 09:04:00,74.7,0.0,29.74,ESE,113,0.0,1.1,0,0.00,,,0.00,WUHU216HW,2013-08-02 13:04:00,
2013-08-02 09:09:00,75.1,0.0,29.74,ESE,113,0.2,0.9,0,0.00,,,0.00,WUHU216HW,2013-08-02 13:09:00,
2013-08-02 09:14:00,75.4,0.0,29.74,SSE,158,1.1,1.8,0,0.00,,,0.00,WUHU216HW,2013-08-02 13:14:00,
2013-08-02 09:19:00,75.6,0.0,29.74,SW,225,1.3,1.8,0,0.00,,,0.00,WUHU216HW,2013-08-02 13:19:00,
2013-08-02 09:24:00,75.8,0.0,29.74,East,90,0.2,1.3,0,0.00,,,0.00,WUHU216HW,2013-08-02 13:24:00,
2013-08-02 09:29:00,75.8,0.0,29.74,SSW,203,0.9,1.3,0,0.00,,,0.00,WUHU216HW,2013-08-02 13:29:00,
2013-08-02 09:34:00,75.8,0.0,29.74,NNE,23,0.7,2.0,0,0.00,,,0.00,WUHU216HW,2013-08-02 13:34:00,
2013-08-02 09:39:00,76.0,0.0,29.74,ENE,68,1.8,2.0,0,0.00,,,0.00,WUHU216HW,2013-08-02 13:39:00,
2013-08-02 09:44:00,76.1,0.0,29.74,West,270,1.1,2.0,0,0.00,,,0.00,WUHU216HW,2013-08-02 13:44:00,
2013-08-02 09:49:00,76.5,0.0,29.74,WSW,248,1.8,1.8,0,0.00,,,0.00,WUHU216HW,2013-08-02 13:49:00,
2013-08-02 09:54:00,76.7,0.0,29.74,WSW,248,1.1,2.5,0,0.00,,,0.00,WUHU216HW,2013-08-02 13:54:00,
2013-08-02 09:59:00,76.9,0.0,29.74,SSW,203,0.2,2.5,0,0.00,,,0.00,WUHU216HW,2013-08-02 13:59:00,
2013-08-02 10:04:00,76.9,0.0,29.75,WSW,248,0.4,2.2,0,0.00,,,0.00,WUHU216HW,2013-08-02 14:04:00,
2013-08-02 10:09:00,76.9,0.0,29.75,WSW,248,1.1,2.2,0,0.00,,,0.00,WUHU216HW,2013-08-02 14:09:00,
2013-08-02 10:14:00,76.7,0.0,29.75,SW,225,1.1,1.8,0,0.00,,,0.00,WUHU216HW,2013-08-02 14:14:00,
2013-08-02 10:19:00,77.4,0.0,29.75,South,180,2.9,2.9,0,0.00,,,0.00,WUHU216HW,2013-08-02 14:19:00,
2013-08-02 10:24:00,78.1,0.0,29.76,SSE,158,2.5,2.9,0,0.00,,,0.00,WUHU216HW,2013-08-02 14:24:00,
2013-08-02 10:29:00,78.1,0.0,29.75,NNW,338,0.4,2.5,0,0.00,,,0.00,WUHU216HW,2013-08-02 14:29:00,
2013-08-02 10:34:00,77.6,0.0,29.75,SSW,203,1.3,2.2,0,0.00,,,0.00,WUHU216HW,2013-08-02 14:34:00,
2013-08-02 10:39:00,78.3,0.0,29.75,South,180,1.3,2.5,0,0.00,,,0.00,WUHU216HW,2013-08-02 14:39:00,
2013-08-02 10:44:00,78.8,0.0,29.76,WSW,248,1.8,2.5,0,0.00,,,0.00,WUHU216HW,2013-08-02 14:44:00,
2013-08-02 10:49:00,78.7,0.0,29.76,NNE,23,1.3,2.2,0,0.00,,,0.00,WUHU216HW,2013-08-02 14:49:00,
2013-08-02 10:54:00,78.5,0.0,29.76,West,270,1.1,2.2,0,0.00,,,0.00,WUHU216HW,2013-08-02 14:54:00,
2013-08-02 10:59:00,78.7,0.0,29.76,West,270,0.7,2.0,0,0.00,,,0.00,WUHU216HW,2013-08-02 14:59:00,
2013-08-02 11:04:00,78.8,0.0,29.76,South,180,1.8,2.9,0,0.00,,,0.00,WUHU216HW,2013-08-02 15:04:00,
2013-08-02 11:09:00,78.3,0.0,29.77,SSE,158,1.3,2.9,0,0.00,,,0.00,WUHU216HW,2013-08-02 15:09:00,
2013-08-02 11:14:00,78.5,0.0,29.76,NE,45,0.0,2.7,0,0.00,,,0.00,WUHU216HW,2013-08-02 15:14:00,
2013-08-02 11:19:00,78.7,0.0,29.76,SSE,158,1.6,2.7,0,0.00,,,0.00,WUHU216HW,2013-08-02 15:19:00,
2013-08-02 11:24:00,79.2,0.0,29.76,SSW,203,2.0,2.0,0,0.00,,,0.00,WUHU216HW,2013-08-02 15:24:00,
2013-08-02 11:29:00,79.6,0.0,29.76,South,180,0.9,3.1,0,0.00,,,0.00,WUHU216HW,2013-08-02 15:29:00,
2013-08-02 11:34:00,79.9,0.0,29.76,SSW,203,0.4,3.1,0,0.00,,,0.00,WUHU216HW,2013-08-02 15:34:00,
2013-08-02 11:39:00,80.6,0.0,29.76,SSW,203,1.3,2.5,0,0.00,,,0.00,WUHU216HW,2013-08-02 15:39:00,
2013-08-02 11:44:00,81.5,0.0,29.76,SW,225,1.1,2.5,0,0.00,,,0.00,WUHU216HW,2013-08-02 15:44:00,
2013-08-02 11:49:00,80.8,0.0,29.76,ENE,68,1.6,1.6,0,0.00,,,0.00,WUHU216HW,2013-08-02 15:49:00,
2013-08-02 11:54:00,80.6,0.0,29.76,NNE,23,0.4,1.6,0,0.00,,,0.00,WUHU216HW,2013-08-02 15:54:00,
2013-08-02 11:59:00,81.7,0.0,29.76,SW,225,1.8,2.9,0,0.00,,,0.00,WUHU216HW,2013-08-02 15:59:00,
2013-08-02 12:04:00,81.7,0.0,29.76,WSW,248,1.6,2.9,0,0.00,,,0.00,WUHU216HW,2013-08-02 16:04:00,
2013-08-02 12:09:00,81.5,0.0,29.76,ENE,68,1.1,2.9,0,0.00,,,0.00,WUHU216HW,2013-08-02 16:09:00,
2013-08-02 12:14:00,81.2,0.0,29.76,WSW,248,1.1,2.5,0,0.00,,,0.00,WUHU216HW,2013-08-02 16:14:00,
2013-08-02 12:19:00,81.5,0.0,29.76,WSW,248,0.9,2.5,0,0.00,,,0.00,WUHU216HW,2013-08-02 16:19:00,
2013-08-02 12:24:00,81.4,0.0,29.76,South,180,1.8,1.8,0,0.00,,,0.00,WUHU216HW,2013-08-02 16:24:00,
2013-08-02 12:29:00,81.4,0.0,29.75,WSW,248,2.5,2.5,0,0.00,,,0.00,WUHU216HW,2013-08-02 16:29:00,
2013-08-02 12:34:00,81.5,0.0,29.75,NE,45,1.8,2.5,0,0.00,,,0.00,WUHU216HW,2013-08-02 16:34:00,
2013-08-02 12:39:00,81.7,0.0,29.75,WSW,248,1.1,2.5,0,0.00,,,0.00,WUHU216HW,2013-08-02 16:39:00,
2013-08-02 12:44:00,81.5,0.0,29.75,SW,225,1.3,2.5,0,0.00,,,0.00,WUHU216HW,2013-08-02 16:44:00,
2013-08-02 12:49:00,81.7,0.0,29.75,SW,225,2.0,2.0,0,0.00,,,0.00,WUHU216HW,2013-08-02 16:49:00,
2013-08-02 12:54:00,82.8,0.0,29.75,WSW,248,2.5,2.5,0,0.00,,,0.00,WUHU216HW,2013-08-02 16:54:00,
2013-08-02 12:59:00,83.7,0.0,29.74,SSE,158,4.0,4.0,0,0.00,,,0.00,WUHU216HW,2013-08-02 16:59:00,
2013-08-02 13:04:00,83.7,0.0,29.74,SW,225,0.4,4.7,0,0.00,,,0.00,WUHU216HW,2013-08-02 17:04:00,
2013-08-02 13:09:00,83.7,0.0,29.74,SSW,203,2.0,4.7,0,0.00,,,0.00,WUHU216HW,2013-08-02 17:09:00,
2013-08-02 13:14:00,84.1,0.0,29.74,NW,315,0.0,2.7,0,0.00,,,0.00,WUHU216HW,2013-08-02 17:14:00,
2013-08-02 13:19:00,84.6,0.0,29.74,South,180,2.7,2.7,0,0.00,,,0.00,WUHU216HW,2013-08-02 17:19:00,
2013-08-02 13:24:00,84.8,0.0,29.74,ESE,113,1.8,4.3,0,0.00,,,0.00,WUHU216HW,2013-08-02 17:24:00,
2013-08-02 13:29:00,84.6,0.0,29.74,WSW,248,1.6,4.3,0,0.00,,,0.00,WUHU216HW,2013-08-02 17:29:00,
2013-08-02 13:34:00,83.9,0.0,29.73,NW,315,0.9,3.6,0,0.00,,,0.00,WUHU216HW,2013-08-02 17:34:00,
2013-08-02 13:39:00,83.2,0.0,29.74,North,0,2.5,2.5,0,0.00,,,0.00,WUHU216HW,2013-08-02 17:39:00,
2013-08-02 13:44:00,83.2,0.0,29.74,WSW,248,1.6,3.1,0,0.00,,,0.00,WUHU216HW,2013-08-02 17:44:00,
2013-08-02 13:49:00,83.2,0.0,29.74,SE,135,1.8,3.6,0,0.00,,,0.00,WUHU216HW,2013-08-02 17:49:00,
2013-08-02 13:54:00,83.3,0.0,29.73,SSE,158,1.8,3.6,0,0.00,,,0.00,WUHU216HW,2013-08-02 17:54:00,
2013-08-02 13:59:00,83.9,0.0,29.74,SSW,203,2.5,4.0,0,0.00,,,0.00,WUHU216HW,2013-08-02 17:59:00,
2013-08-02 14:04:00,84.1,0.0,29.74,SW,225,4.0,4.7,0,0.00,,,0.00,WUHU216HW,2013-08-02 18:04:00,
2013-08-02 14:09:00,84.2,0.0,29.74,WSW,248,2.2,4.7,0,0.00,,,0.00,WUHU216HW,2013-08-02 18:09:00,
2013-08-02 14:14:00,84.6,0.0,29.74,SSW,203,1.1,7.6,0,0.00,,,0.00,WUHU216HW,2013-08-02 18:14:00,
2013-08-02 14:19:00,84.4,0.0,29.74,SW,225,1.8,7.6,0,0.00,,,0.00,WUHU216HW,2013-08-02 18:19:00,
2013-08-02 14:24:00,85.0,0.0,29.74,WSW,248,1.1,4.3,0,0.00,,,0.00,WUHU216HW,2013-08-02 18:24:00,
2013-08-02 14:29:00,85.3,0.0,29.74,ENE,68,1.8,4.3,0,0.00,,,0.00,WUHU216HW,2013-08-02 18:29:00,
2013-08-02 14:34:00,85.5,0.0,29.74,SSW,203,1.1,2.9,0,0.00,,,0.00,WUHU216HW,2013-08-02 18:34:00,
2013-08-02 14:39:00,85.3,0.0,29.74,SW,225,2.5,4.3,0,0.00,,,0.00,WUHU216HW,2013-08-02 18:39:00,
2013-08-02 14:44:00,84.4,0.0,29.74,SW,225,3.8,4.3,0,0.00,,,0.00,WUHU216HW,2013-08-02 18:44:00,
2013-08-02 14:49:00,84.4,0.0,29.74,SW,225,0.4,3.8,0,0.00,,,0.00,WUHU216HW,2013-08-02 18:49:00,
2013-08-02 14:54:00,84.2,0.0,29.75,South,180,3.1,3.1,0,0.00,,,0.00,WUHU216HW,2013-08-02 18:54:00,
2013-08-02 14:59:00,84.6,0.0,29.75,SSE,158,3.8,6.3,0,0.00,,,0.00,WUHU216HW,2013-08-02 18:59:00,
2013-08-02 15:04:00,85.0,0.0,29.74,SSW,203,1.6,6.3,0,0.00,,,0.00,WUHU216HW,2013-08-02 19:04:00,
2013-08-02 15:10:00,84.2,0.0,29.74,NW,315,1.3,1.6,0,0.00,,,0.00,WUHU216HW,2013-08-02 19:10:00,
2013-08-02 15:15:00,83.0,0.0,29.74,WSW,248,2.5,2.5,0,0.00,,,0.00,WUHU216HW,2013-08-02 19:15:00,
2013-08-02 15:20:00,82.6,0.0,29.74,NW,315,2.0,3.4,0,0.00,,,0.00,WUHU216HW,2013-08-02 19:20:00,
2013-08-02 15:24:00,82.4,0.0,29.73,SSW,203,0.2,3.4,0,0.00,,,0.00,WUHU216HW,2013-08-02 19:24:00,
2013-08-02 15:30:00,82.8,0.0,29.74,WSW,248,3.1,3.1,0,0.00,,,0.00,WUHU216HW,2013-08-02 19:30:00,
2013-08-02 15:35:00,82.8,0.0,29.74,NNE,23,1.1,3.1,0,0.00,,,0.00,WUHU216HW,2013-08-02 19:35:00,
2013-08-02 15:40:00,82.6,0.0,29.74,SW,225,1.8,2.5,0,0.00,,,0.00,WUHU216HW,2013-08-02 19:40:00,
2013-08-02 15:45:00,82.8,0.0,29.73,South,180,1.1,1.8,0,0.00,,,0.00,WUHU216HW,2013-08-02 19:45:00,
2013-08-02 15:50:00,82.4,0.0,29.73,SE,135,0.7,1.8,0,0.00,,,0.00,WUHU216HW,2013-08-02 19:50:00,
2013-08-02 15:55:00,82.4,0.0,29.73,South,180,1.3,1.3,0,0.00,,,0.00,WUHU216HW,2013-08-02 19:55:00,
2013-08-02 16:00:00,82.4,0.0,29.72,WSW,248,1.6,2.7,0,0.00,,,0.00,WUHU216HW,2013-08-02 20:00:00,
2013-08-02 16:05:00,81.7,0.0,29.72,ENE,68,1.1,2.7,0,0.00,,,0.00,WUHU216HW,2013-08-02 20:05:00,
2013-08-02 16:10:00,81.4,0.0,29.73,NW,315,0.4,2.2,0,0.00,,,0.00,WUHU216HW,2013-08-02 20:10:00,
2013-08-02 16:15:00,81.4,0.0,29.72,West,270,2.0,2.5,0,0.00,,,0.00,WUHU216HW,2013-08-02 20:15:00,
2013-08-02 16:20:00,81.0,0.0,29.73,SSW,203,1.1,2.5,0,0.00,,,0.00,WUHU216HW,2013-08-02 20:20:00,
2013-08-02 16:25:00,80.3,0.0,29.73,NNW,338,1.8,1.8,0,0.00,,,0.00,WUHU216HW,2013-08-02 20:25:00,
2013-08-02 16:30:00,79.6,0.0,29.72,SSW,203,2.2,2.5,0,0.00,,,0.00,WUHU216HW,2013-08-02 20:30:00,
2013-08-02 16:35:00,79.2,0.0,29.72,SW,225,0.7,2.5,0,0.00,,,0.00,WUHU216HW,2013-08-02 20:35:00,
2013-08-02 16:40:00,79.0,0.0,29.73,SW,225,0.9,2.0,0,0.00,,,0.00,WUHU216HW,2013-08-02 20:40:00,
2013-08-02 16:45:00,78.7,0.0,29.73,SW,225,0.0,1.1,0,0.00,,,0.00,WUHU216HW,2013-08-02 20:45:00,
2013-08-02 16:50:00,78.3,0.0,29.73,SSW,203,1.6,1.6,0,0.00,,,0.00,WUHU216HW,2013-08-02 20:50:00,
2013-08-02 16:55:00,78.7,0.0,29.73,SW,225,0.9,3.1,0,0.00,,,0.00,WUHU216HW,2013-08-02 20:55:00,
2013-08-02 17:00:00,79.0,0.0,29.74,SSW,203,1.1,3.1,0,0.00,,,0.00,WUHU216HW,2013-08-02 21:00:00,
2013-08-02 17:05:00,79.2,0.0,29.73,WSW,248,0.2,2.7,0,0.00,,,0.00,WUHU216HW,2013-08-02 21:05:00,
2013-08-02 17:10:00,79.2,0.0,29.73,SW,225,0.7,2.0,0,0.00,,,0.00,WUHU216HW,2013-08-02 21:10:00,
2013-08-02 17:15:00,79.0,0.0,29.73,South,180,1.1,1.8,0,0.00,,,0.00,WUHU216HW,2013-08-02 21:15:00,
2013-08-02 17:20:00,79.0,0.0,29.72,SSW,203,0.0,1.8,0,0.00,,,0.00,WUHU216HW,2013-08-02 21:20:00,
2013-08-02 17:25:00,79.0,0.0,29.72,South,180,0.2,1.6,0,0.00,,,0.00,WUHU216HW,2013-08-02 21:25:00,
2013-08-02 17:30:00,78.8,0.0,29.72,SSW,203,0.0,1.8,0,0.00,,,0.00,WUHU216HW,2013-08-02 21:30:00,
2013-08-02 17:35:00,78.7,0.0,29.72,South,180,0.7,2.2,0,0.00,,,0.00,WUHU216HW,2013-08-02 21:35:00,
2013-08-02 17:40:00,78.1,0.0,29.72,SE,135,0.7,2.7,0,0.00,,,0.00,WUHU216HW,2013-08-02 21:40:00,
2013-08-02 17:45:00,77.6,0.0,29.72,SE,135,0.0,2.7,0,0.00,,,0.00,WUHU216HW,2013-08-02 21:45:00,
2013-08-02 17:50:00,77.0,0.0,29.73,ENE,68,0.0,0.9,0,0.00,,,0.00,WUHU216HW,2013-08-02 21:50:00,
2013-08-02 17:55:00,76.7,0.0,29.73,ENE,68,0.4,0.9,0,0.00,,,0.00,WUHU216HW,2013-08-02 21:55:00,
2013-08-02 18:00:00,76.7,0.0,29.73,ENE,68,0.0,0.9,0,0.00,,,0.00,WUHU216HW,2013-08-02 22:00:00,
2013-08-02 18:05:00,76.9,0.0,29.72,ENE,68,0.0,0.9,0,0.00,,,0.00,WUHU216HW,2013-08-02 22:05:00,
2013-08-02 18:10:00,76.9,0.0,29.73,ENE,68,0.0,0.7,0,0.00,,,0.00,WUHU216HW,2013-08-02 22:10:00,
2013-08-02 18:15:00,76.9,0.0,29.72,ENE,68,0.0,0.7,0,0.00,,,0.00,WUHU216HW,2013-08-02 22:15:00,
2013-08-02 18:20:00,76.5,0.0,29.72,ENE,68,0.0,0.7,0,0.00,,,0.00,WUHU216HW,2013-08-02 22:20:00,
2013-08-02 18:25:00,76.3,0.0,29.72,ENE,68,0.0,0.0,0,0.00,,,0.00,WUHU216HW,2013-08-02 22:25:00,
2013-08-02 18:30:00,76.1,0.0,29.72,ENE,68,0.0,0.7,0,0.00,,,0.00,WUHU216HW,2013-08-02 22:30:00,
2013-08-02 18:35:00,75.6,0.0,29.72,ENE,68,0.0,0.7,0,0.00,,,0.00,WUHU216HW,2013-08-02 22:35:00,
2013-08-02 18:40:00,75.2,0.0,29.72,ENE,68,0.0,0.0,0,0.00,,,0.00,WUHU216HW,2013-08-02 22:40:00,
2013-08-02 18:45:00,74.9,0.0,29.72,ENE,68,0.4,0.4,0,0.00,,,0.00,WUHU216HW,2013-08-02 22:45:00,
2013-08-02 18:50:00,74.9,0.0,29.72,ENE,68,0.9,0.9,0,0.00,,,0.00,WUHU216HW,2013-08-02 22:50:00,
2013-08-02 18:55:00,74.9,0.0,29.72,East,90,0.9,0.9,0,0.00,,,0.00,WUHU216HW,2013-08-02 22:55:00,
2013-08-02 19:00:00,74.9,0.0,29.72,South,180,1.1,1.1,0,0.00,,,0.00,WUHU216HW,2013-08-02 23:00:00,
2013-08-02 19:06:00,74.9,0.0,29.72,SSW,203,1.1,1.1,0,0.00,,,0.00,WUHU216HW,2013-08-02 23:06:00,
2013-08-02 19:11:00,74.5,0.0,29.72,SSE,158,0.0,1.3,0,0.00,,,0.00,WUHU216HW,2013-08-02 23:11:00,
2013-08-02 19:16:00,73.8,0.0,29.72,SSW,203,0.7,1.3,0,0.00,,,0.00,WUHU216HW,2013-08-02 23:16:00,
2013-08-02 19:21:00,73.4,0.0,29.73,SW,225,1.3,1.8,0,0.00,,,0.00,WUHU216HW,2013-08-02 23:21:00,
2013-08-02 19:26:00,72.7,0.0,29.73,SW,225,1.1,2.2,0,0.00,,,0.00,WUHU216HW,2013-08-02 23:26:00,
2013-08-02 19:31:00,72.4,0.0,29.73,SSW,203,1.3,3.6,0,0.00,,,0.00,WUHU216HW,2013-08-02 23:31:00,
2013-08-02 19:36:00,72.0,0.0,29.73,SE,135,1.1,3.6,0,0.00,,,0.00,WUHU216HW,2013-08-02 23:36:00,
2013-08-02 19:41:00,71.6,0.0,29.73,SSW,203,0.7,1.1,0,0.00,,,0.00,WUHU216HW,2013-08-02 23:41:00,
2013-08-02 19:46:00,71.3,0.0,29.73,SSW,203,0.9,1.1,0,0.00,,,0.00,WUHU216HW,2013-08-02 23:46:00,
2013-08-02 19:51:00,70.9,0.0,29.73,SSW,203,0.7,1.8,0,0.00,,,0.00,WUHU216HW,2013-08-02 23:51:00,
2013-08-02 19:56:00,70.4,0.0,29.74,SW,225,1.6,1.8,0,0.00,,,0.00,WUHU216HW,2013-08-02 23:56:00,
2013-08-02 20:01:00,70.0,0.0,29.74,SSW,203,1.1,1.6,0,0.00,,,0.00,WUHU216HW,2013-08-03 00:01:00,
2013-08-02 20:06:00,69.7,0.0,29.74,SSW,203,0.4,1.6,0,0.00,,,0.00,WUHU216HW,2013-08-03 00:06:00,
2013-08-02 20:11:00,69.3,0.0,29.74,SSW,203,0.7,1.6,0,0.00,,,0.00,WUHU216HW,2013-08-03 00:11:00,
2013-08-02 20:16:00,68.9,0.0,29.74,SSW,203,0.7,1.1,0,0.00,,,0.00,WUHU216HW,2013-08-03 00:16:00,
2013-08-02 20:22:00,68.6,0.0,29.74,SSE,158,0.0,1.1,0,0.00,,,0.00,WUHU216HW,2013-08-03 00:22:00,
2013-08-02 20:27:00,68.0,0.0,29.74,SSE,158,0.2,1.1,0,0.00,,,0.00,WUHU216HW,2013-08-03 00:27:00,
2013-08-02 20:32:00,67.9,0.0,29.75,SSE,158,0.0,1.1,0,0.00,,,0.00,WUHU216HW,2013-08-03 00:32:00,
2013-08-02 20:37:00,67.3,0.0,29.75,SSE,158,0.4,0.9,0,0.00,,,0.00,WUHU216HW,2013-08-03 00:37:00,
2013-08-02 20:42:00,67.0,0.0,29.75,SSE,158,0.0,0.9,0,0.00,,,0.00,WUHU216HW,2013-08-03 00:42:00,
2013-08-02 20:47:00,66.6,0.0,29.75,SSE,158,0.0,0.0,0,0.00,,,0.00,WUHU216HW,2013-08-03 00:47:00,
2013-08-02 20:52:00,66.4,0.0,29.75,SSE,158,0.0,0.0,0,0.00,,,0.00,WUHU216HW,2013-08-03 00:52:00,
2013-08-02 20:57:00,66.1,0.0,29.75,SSE,158,0.0,0.0,0,0.00,,,0.00,WUHU216HW,2013-08-03 00:57:00,
2013-08-02 21:02:00,65.9,0.0,29.75,SSE,158,0.0,0.0,0,0.00,,,0.00,WUHU216HW,2013-08-03 01:02:00,
2013-08-02 21:07:00,65.5,0.0,29.75,SSE,158,0.0,0.0,0,0.00,,,0.00,WUHU216HW,2013-08-03 01:07:00,
2013-08-02 21:12:00,65.3,0.0,29.76,SSE,158,0.0,0.0,0,0.00,,,0.00,WUHU216HW,2013-08-03 01:12:00,
2013-08-02 21:17:00,65.2,0.0,29.76,SSE,158,0.0,0.0,0,0.00,,,0.00,WUHU216HW,2013-08-03 01:17:00,
2013-08-02 21:22:00,65.0,0.0,29.76,SSE,158,0.0,0.0,0,0.00,,,0.00,WUHU216HW,2013-08-03 01:22:00,
2013-08-02 21:27:00,64.8,0.0,29.76,SSE,158,0.0,0.0,0,0.00,,,0.00,WUHU216HW,2013-08-03 01:27:00,
2013-08-02 21:32:00,64.4,0.0,29.76,SSE,158,0.0,0.0,0,0.00,,,0.00,WUHU216HW,2013-08-03 01:32:00,
2013-08-02 21:37:00,64.3,0.0,29.76,SSE,158,0.0,0.0,0,0.00,,,0.00,WUHU216HW,2013-08-03 01:37:00,
2013-08-02 21:42:00,64.1,0.0,29.76,SSE,158,0.0,0.0,0,0.00,,,0.00,WUHU216HW,2013-08-03 01:42:00,
2013-08-02 21:47:00,63.7,0.0,29.76,SSE,158,0.0,0.0,0,0.00,,,0.00,WUHU216HW,2013-08-03 01:47:00,
2013-08-02 21:52:00,63.5,0.0,29.76,SSE,158,0.0,0.0,0,0.00,,,0.00,WUHU216HW,2013-08-03 01:52:00,
2013-08-02 21:57:00,63.4,0.0,29.76,SSE,158,0.0,0.0,0,0.00,,,0.00,WUHU216HW,2013-08-03 01:57:00,
2013-08-02 22:02:00,63.2,0.0,29.77,SSE,158,0.0,0.0,0,0.00,,,0.00,WUHU216HW,2013-08-03 02:02:00,
2013-08-02 22:07:00,63.0,0.0,29.76,SSE,158,0.0,0.0,0,0.00,,,0.00,WUHU216HW,2013-08-03 02:07:00,
2013-08-02 22:12:00,62.8,0.0,29.76,SSE,158,0.0,0.0,0,0.00,,,0.00,WUHU216HW,2013-08-03 02:12:00,
2013-08-02 22:17:00,63.0,0.0,29.76,SSE,158,0.0,0.0,0,0.00,,,0.00,WUHU216HW,2013-08-03 02:17:00,
2013-08-02 22:22:00,63.0,0.0,29.76,SSE,158,0.0,0.0,0,0.00,,,0.00,WUHU216HW,2013-08-03 02:22:00,
2013-08-02 22:27:00,63.0,0.0,29.76,SSE,158,0.0,0.0,0,0.00,,,0.00,WUHU216HW,2013-08-03 02:27:00,
2013-08-02 22:32:00,63.0,0.0,29.76,SSE,158,0.0,0.0,0,0.00,,,0.00,WUHU216HW,2013-08-03 02:32:00,
2013-08-02 22:37:00,63.0,0.0,29.76,SSE,158,0.0,0.0,0,0.00,,,0.00,WUHU216HW,2013-08-03 02:37:00,
2013-08-02 22:42:00,63.0,0.0,29.76,SSE,158,0.0,0.4,0,0.00,,,0.00,WUHU216HW,2013-08-03 02:42:00,
2013-08-02 22:47:00,63.0,0.0,29.77,SSE,158,0.0,0.4,0,0.00,,,0.00,WUHU216HW,2013-08-03 02:47:00,
2013-08-02 22:52:00,63.0,0.0,29.77,South,180,0.0,0.4,0,0.00,,,0.00,WUHU216HW,2013-08-03 02:52:00,
2013-08-02 22:57:00,63.0,0.0,29.77,SSE,158,1.1,1.8,0,0.00,,,0.00,WUHU216HW,2013-08-03 02:57:00,
2013-08-02 23:02:00,63.2,0.0,29.77,SSE,158,0.0,1.8,0,0.00,,,0.00,WUHU216HW,2013-08-03 03:02:00,
2013-08-02 23:07:00,63.2,0.0,29.77,SSE,158,0.0,0.4,0,0.00,,,0.00,WUHU216HW,2013-08-03 03:07:00,
2013-08-02 23:12:00,63.2,0.0,29.77,SSE,158,0.4,0.9,0,0.00,,,0.00,WUHU216HW,2013-08-03 03:12:00,
2013-08-02 23:17:00,63.2,0.0,29.77,SSE,158,1.1,1.1,0,0.00,,,0.00,WUHU216HW,2013-08-03 03:17:00,
2013-08-02 23:22:00,63.2,0.0,29.77,SE,135,0.2,1.6,0,0.00,,,0.00,WUHU216HW,2013-08-03 03:22:00,
2013-08-02 23:27:00,63.0,0.0,29.77,SE,135,0.0,1.6,0,0.00,,,0.00,WUHU216HW,2013-08-03 03:27:00,
2013-08-02 23:32:00,63.0,0.0,29.77,SE,135,0.2,1.1,0,0.00,,,0.00,WUHU216HW,2013-08-03 03:32:00,
2013-08-02 23:42:00,62.8,0.0,29.77,SE,135,0.9,0.9,0,0.00,,,0.00,WUHU216HW,2013-08-03 03:42:00,
2013-08-02 23:47:00,62.8,0.0,29.77,SE,135,0.0,0.9,0,0.00,,,0.00,WUHU216HW,2013-08-03 03:47:00,
2013-08-02 23:52:00,62.8,0.0,29.77,SE,135,0.4,0.9,0,0.00,,,0.00,WUHU216HW,2013-08-03 03:52:00,
2013-08-02 23:57:00,62.8,0.0,29.77,SW,225,0.0,1.1,0,0.00,,,0.00,WUHU216HW,2013-08-03 03:57:00,